Location: C?lanul-Mic
(45.7500°N, 23.0000°E)
Time: 14:15:28
(UTC+00:00)

Daily predictions for brighter satellites

Satellite Brightness Start Highest point End
(mag) Time Altitude Azimuth Time Altitude Azimuth Time Altitude Azimuth
Gbstr 26 Del rocket 3.4 18:44:29 10° WSW 18:48:39 72° NNW 18:53:43 10° ENE
Cosmos 1825 2.4 18:46:26 10° SSW 18:49:48 64° W 18:53:10 10° N
ARGOS Delta rocket 3.9 18:45:23 10° SSE 18:50:02 89° ENE 18:55:01 10° N
Okean-O 2.6 18:47:04 10° SSE 18:51:27 76° ENE 18:55:52 10° N
CZ-4C R/B 3.5 18:55:50 10° NNE 18:59:22 42° E 19:02:44 10° S
NOSS 2-2 (E) 3.3 18:59:07 10° S 19:02:14 36° ESE 19:05:08 10° NE
NOSS 2-2 (C) 2.7 18:59:24 10° SSW 19:02:39 60° SE 19:05:43 10° NE
Cosmos 2084 3.6 19:01:35 10° SSW 19:05:34 44° ESE 19:09:23 10° NE
NOSS 2-3 (E) 3.5 19:04:31 10° SSW 19:07:57 42° ESE 19:11:39 10° NE
USA 276 2.9 19:06:09 10° WNW 19:08:59 44° NNE 19:11:54 10° E
Nadezhda 3 Rocket 4.2 19:03:13 10° N 19:09:16 56° ENE 19:15:17 10° SSE
Cosmos 2181 Rocket 4.3 19:03:52 10° NNW 19:10:00 72° W 19:16:10 10° S
Cosmos 1844 3.9 19:08:15 10° SSW 19:14:02 83° WNW 19:19:52 10° NNE
Terra 2.0 19:13:57 10° SSE 19:18:27 57° ENE 19:23:06 10° N
Meteor 1-21 Rocket 4.2 19:15:13 10° S 19:20:44 78° E 19:26:18 10° NNE
NOSS 2-3 (C) 3.1 19:22:03 10° SSW 19:25:37 65° SE 19:29:31 10° NE
GP-B 3.9 19:26:25 10° N 19:30:43 53° W 19:34:59 10° SSW
Meteor 2-1 Rocket 4.4 19:26:27 10° N 19:32:01 59° ENE 19:36:36 15° SSE
Cosmos 1833 Rocket 3.6 19:27:02 10° NNW 19:32:16 37° NE 19:36:42 14° ESE
ATLAS CENTAUR R/B 1.3 19:28:55 10° NNW 19:32:55 76° NE 19:35:58 18° SE
Okean 1 Rocket 4.3 19:29:14 10° NNW 19:33:25 40° W 19:37:35 10° SSW
Cosmos 1437 Rocket 4.2 19:32:35 16° ESE 19:33:52 19° E 19:36:28 10° NE
Cosmos 1455 Rocket 3.1 19:34:22 10° N 19:38:47 83° W 19:42:41 13° S
Cosmos 44 4.0 19:35:13 10° S 19:40:01 36° ESE 19:44:40 10° NE
NOSS 2-2 (D) 2.7 19:36:42 10° SW 19:40:01 83° NW 19:43:09 10° NE
Cosmos 1975 Rocket 3.0 19:36:11 10° S 19:40:37 75° E 19:45:06 10° NNE
Lacrosse 5 2.9 19:36:26 10° WSW 19:41:20 49° NNW 19:46:16 10° NE
Cosmos 1025 Rocket 3.8 19:37:14 10° SSW 19:41:22 51° WNW 19:45:32 10° N
Cosmos 2184 Rocket 4.4 19:36:00 10° SSW 19:42:19 67° W 19:48:38 10° N
ERS-1 Rocket 3.1 19:38:07 11° S 19:42:56 74° WSW 19:47:58 10° NNW
Spot 2 Rocket 3.5 19:39:22 14° SSE 19:43:45 84° ENE 19:48:52 10° NNW
Cosmos 2082 Rocket 4.2 19:41:08 10° N 19:44:49 17° NE 19:48:28 10° E
ATLAS 5 CENTAUR R/B 3.6 19:43:34 10° W 19:46:23 25° NW 19:49:31 10° NNE
Cosmos 220 Rocket 4.3 19:45:24 10° NNW 19:49:26 49° ENE 19:51:52 22° SE
Cosmos 1844 Rocket 4.1 19:45:15 10° SW 19:50:27 40° NW 19:55:42 10° NNE
Cosmos 2278 Rocket 3.5 19:49:26 18° SE 19:51:26 22° E 19:55:38 10° NE
Cosmos 2341 Rocket 4.3 19:48:47 15° SSE 19:53:45 52° E 19:59:51 10° NNE
Cosmos 1339 Rocket 4.5 19:47:39 10° N 19:53:55 77° E 19:58:46 17° SSE
Landsat 5 4.2 19:51:42 10° NNE 19:55:50 38° E 19:57:59 23° SSE
Cosmos 2298 Rocket 4.4 19:53:06 16° S 19:57:03 44° ESE 20:02:06 10° NNE
Meteor 1-11 4.2 19:53:46 10° S 19:59:30 88° E 20:05:13 10° NNE
MetOp-A 4.3 19:57:03 21° SE 19:59:43 44° ENE 20:03:52 10° N
Okean O Rocket 4.3 19:58:52 10° WSW 20:00:31 12° W 20:02:11 10° WNW
Cosmos 1606 2.4 19:58:42 10° N 20:02:17 89° WSW 20:04:09 26° S
Ariane Rocket 3.3 20:07:17 17° S 20:11:09 62° WSW 20:16:11 10° NNW
Cosmos 1536 Rocket 4.0 20:10:07 28° SE 20:11:53 42° E 20:15:58 10° NNE
Cosmos 1869 3.3 20:09:21 10° NNW 20:13:10 71° W 20:15:16 25° S
MOS 1 Rocket 4.2 20:11:40 13° SSW 20:15:34 41° W 20:19:49 10° NNW
ATLAS 3B R/B 3.9 20:14:16 20° SE 20:16:06 22° ESE 20:21:33 10° ENE
ISS -1.7 20:16:55 10° WNW 20:19:51 28° N 20:22:48 10° ENE
USA 215 4.4 20:15:52 16° S 20:20:08 31° SW 20:25:50 10° WNW
ARIANE 5 R/B 3.8 20:21:27 22° ESE 20:23:18 30° ENE 20:27:12 10° N
USA 290 4.3 20:25:33 16° ENE 20:25:33 16° ENE 20:26:45 10° ENE
Cosmos 2098 4.4 20:25:19 33° S 20:26:52 85° E 20:30:03 10° N
Cosmos 1943 Rocket 3.2 20:26:53 25° ESE 20:28:06 27° ESE 20:32:44 10° NE
Cosmos 1821 Rocket 4.5 20:25:12 26° SE 20:28:20 45° E 20:34:19 10° NNE
GENESIS II 3.9 20:25:19 10° NW 20:28:54 78° NE 20:29:52 45° SE
Cosmos 2228 2.9 20:25:33 10° N 20:29:46 85° W 20:31:33 34° S
Geosat 4.2 20:26:04 10° NNE 20:31:04 71° WNW 20:36:03 10° SW
Cosmos 1125 Rocket 4.4 20:29:57 10° SW 20:35:05 51° WNW 20:40:16 10° NNE
Cosmos 2150 Rocket 4.1 20:34:01 14° SSW 20:38:42 84° WNW 20:44:12 10° NNE
NOSS 3-1 (C) 2.9 20:37:13 23° SSW 20:40:12 61° ESE 20:45:51 10° NE
USA 276 2.7 20:40:20 10° WNW 20:42:48 41° WSW 20:42:48 41° WSW
SeaSat 1 3.8 20:47:14 18° E 20:50:00 31° NE 20:54:19 10° N
Cosmos 2366 rocket 4.1 20:45:59 20° SSW 20:50:24 75° W 20:56:34 10° N
Terra 4.1 20:53:16 10° SW 20:56:24 17° W 20:59:33 10° NW
BREEZE-M DEB (TANK) 4.5 20:53:55 10° WNW 20:57:43 54° SSW 21:03:15 25° SE
Cosmos 1812 3.3 20:58:58 10° N 21:02:19 38° ENE 21:02:28 38° E
Aureole 2 4.4 21:05:44 63° NE 21:05:44 63° NE 21:08:39 10° NNE
PSLV R/B 3.9 21:04:39 10° NNE 21:08:35 55° E 21:08:54 53° ESE
Cosmos 1892 Rocket 3.9 21:08:00 45° SE 21:08:42 49° E 21:13:00 10° NNE
Meteor 2-13 Rocket 4.4 21:02:58 10° N 21:09:09 83° W 21:11:57 35° S
Cosmos 1437 Rocket 4.3 21:07:19 17° WSW 21:09:18 28° WNW 21:12:30 10° N
ATLAS CENTAUR R/B 3.7 21:08:13 10° W 21:09:59 13° WSW 21:10:52 12° SW
Cosmos 1140 Rocket 4.5 21:08:03 10° N 21:12:48 37° ENE 21:14:53 26° ESE
Cosmos 2239 Rocket 4.5 21:10:55 37° SSE 21:13:26 67° E 21:19:38 10° NNE
SL-08 R/B 4.5 21:12:45 37° SSE 21:15:11 68° E 21:21:16 10° NNE
Cosmos 1833 Rocket 3.6 21:11:01 10° NW 21:16:11 38° WSW 21:18:22 27° SSW
NOSS 3-1 (A) 3.1 21:16:36 46° SSE 21:17:36 54° ESE 21:23:10 10° NE
Cosmos 2123 Rocket 4.4 21:14:33 10° N 21:20:42 53° ENE 21:23:11 34° SE
Lacrosse 5 4.3 21:21:12 10° WNW 21:25:18 24° N 21:29:25 10° NE
Cosmos 1000 Rocket 4.4 21:19:29 10° N 21:25:41 83° E 21:28:02 41° SSE
Cosmos-2242 4.4 21:25:06 10° NNE 21:28:35 25° ENE 21:29:17 23° E
Cosmos 1606 Rocket 3.9 21:24:54 10° NNW 21:29:08 56° W 21:29:59 47° SW
Cosmos 2082 Rocket 2.1 21:24:08 10° NNW 21:29:48 83° ENE 21:31:39 44° SSE
Cosmos 1726 Rocket 3.5 21:27:04 10° NNW 21:31:23 73° W 21:32:05 59° SSW
Cosmos 2278 Rocket 2.6 21:31:13 21° SW 21:35:00 62° WNW 21:40:39 10° NNE
Cosmos 2369 Rocket 3.8 21:37:51 19° ESE 21:38:05 19° E 21:41:53 10° ENE
ULPM Upper Stage 3.0 21:39:25 10° NW 21:43:46 64° NE 21:44:39 50° E
PSLV R/B 4.4 21:40:40 10° NNE 21:44:41 36° E 21:44:44 36° E
H-2A R/B 2.1 21:44:33 81° SSW 21:44:42 84° WSW 21:48:34 10° NNW
USA 229 DEB 4.3 21:44:54 31° ESE 21:45:27 32° ESE 21:51:09 10° NE
USA 229 4.3 21:45:03 31° ESE 21:45:35 32° ESE 21:51:16 10° NE
CZ-4C R/B 3.4 21:47:13 10° NW 21:54:10 60° NE 22:00:34 18° ESE
Cosmos 1934 Rocket 3.9 21:54:43 43° S 21:56:57 88° E 22:03:14 10° N
Cosmos 2058 Rocket 2.9 21:52:40 10° NNW 21:57:01 74° W 21:57:25 68° SW
ISS -2.8 21:53:54 10° NW 21:57:07 45° NNE 21:57:19 44° NNE
CRYOSAT 2 4.4 21:53:02 10° N 21:57:55 68° E 21:58:43 57° SE
USA 290 4.1 21:58:14 24° WNW 21:58:41 25° WNW 22:01:25 10° N
COSMOS 2406 3.1 21:53:40 10° NNW 21:59:22 75° WSW 22:00:48 51° S
ARIANE 5 R/B 3.9 21:58:54 28° WSW 21:59:38 29° W 22:03:33 10° NW
Cosmos 1782 3.1 21:56:01 10° N 21:59:39 51° ENE 21:59:39 51° ENE
ATLAS 3B R/B 2.8 22:01:26 26° SW 22:05:53 86° NW 22:13:36 10° NE
Cosmos 1378 4.1 22:02:50 10° N 22:05:16 34° NE 22:05:16 34° NE
Cosmos 2221 4.4 22:06:04 10° NNE 22:09:11 19° ENE 22:10:18 18° E
Cosmos 1943 Rocket 2.8 22:08:20 24° WSW 22:11:31 51° WNW 22:17:01 10° NNE
USA 281 3.2 22:09:48 37° SE 22:12:40 77° ENE 22:19:15 10° NNW
Meteor 2-19 Rocket 4.4 22:07:41 10° N 22:13:52 81° W 22:15:45 47° S
USA 81 4.0 22:10:01 10° N 22:15:18 75° E 22:16:27 54° SSE
ALOS 2 3.0 22:19:19 49° WSW 22:19:36 50° W 22:23:53 10° NNW
Cosmos 2058 3.8 22:19:03 37° W 22:19:36 39° WNW 22:23:29 10° N
Spot 2 4.2 22:20:41 59° SW 22:21:03 61° WSW 22:25:22 10° NNW
Meteor 2-3 Rocket 3.7 22:21:26 51° SSE 22:22:51 74° E 22:28:31 10° NNE
Cosmos 1812 Rocket 3.8 22:18:36 10° N 22:23:00 56° ENE 22:23:31 53° ESE
Gbstr 26 Del rocket 4.1 22:18:06 10° WNW 22:23:17 62° NNE 22:29:43 10° ESE
H-2A R/B 2.5 22:20:52 10° NNE 22:24:34 45° E 22:24:34 45° E
Alouette 2 Rocket 4.4 22:24:00 38° WSW 22:25:00 45° WNW 22:30:11 10° N
Cosmos 1602 Rocket 3.6 22:25:39 61° ESE 22:25:49 62° E 22:30:07 10° NNE
Cosmos 1535 Rocket 4.4 22:24:51 45° SSW 22:26:50 78° W 22:33:01 10° N
SeaSat 1 2.9 22:26:56 42° SW 22:27:18 43° WSW 22:31:59 10° NW
Cosmos 407 Rocket 3.4 22:22:28 10° NNW 22:27:39 81° WSW 22:28:37 60° S
BREEZE-M DEB (TANK) 4.0 22:15:48 10° SW 22:31:51 56° SSE 22:36:04 10° ENE
Gblst 52 Del rocket 4.2 22:32:25 51° SE 22:32:33 51° SE 22:37:51 10° ENE
Cosmos 1271 Rocket 2.9 22:33:32 61° WNW 22:33:32 61° WNW 22:37:04 10° N
USA 234 4.2 22:28:17 10° ENE 22:33:47 28° SE 22:34:08 28° SE
Okean 1-7 Rocket 3.4 22:33:58 74° SE 22:34:12 77° E 22:38:36 10° NNE
Cosmos 1605 Rocket 3.9 22:32:33 47° SSW 22:34:28 81° W 22:40:38 10° N
Cosmos 1666 3.4 22:37:15 40° NE 22:37:15 40° NE 22:39:48 10° NNE
USA 305 3.8 22:38:32 10° NW 22:40:34 31° NNW 22:40:34 31° NNW
BREEZE-M DEB (TANK) 4.4 22:43:15 28° ESE 22:43:15 28° ESE 22:47:32 10° ENE
Cosmos 1238 Rocket 4.0 22:39:24 10° NNW 22:42:01 29° WNW 22:42:01 29° WNW
Meteor 1-26 Rocket 4.2 22:37:07 10° N 22:42:40 78° ENE 22:44:14 49° SSE
Lacrosse 5 rocket 2.9 22:44:25 23° E 22:44:25 23° E 22:46:23 10° ENE
Cosmos 1758 Rocket 3.4 22:43:55 69° WSW 22:44:11 72° W 22:48:29 10° N
Cosmos 1500 3.5 22:47:50 55° N 22:47:50 55° N 22:50:34 10° N
Cosmos 2297 3.6 22:46:45 51° SSW 22:48:16 86° ESE 22:54:01 10° NNE
Cosmos 1626 Rocket 4.2 22:48:21 41° W 22:48:51 43° WNW 22:52:59 10° N
Timation 1 Rocket 4.3 22:42:59 10° NNW 22:49:00 77° WSW 22:50:42 49° S
Cosmos 2251 Rocket 3.6 22:44:54 10° NNW 22:50:10 61° WSW 22:51:00 53° SSW
Cosmos 1933 3.8 22:49:35 10° NNW 22:53:08 49° W 22:53:08 49° W
Cosmos 1140 Rocket 4.4 22:49:58 10° NW 22:54:27 31° W 22:54:48 31° WSW
Cosmos 1624 Rocket 3.9 22:57:43 57° S 22:58:41 73° ESE 23:03:55 10° NNE
Cosmos 1153 Rocket 4.4 22:57:06 47° S 22:59:05 87° W 23:05:25 10° N
SL-8 R/B 3.6 23:00:52 63° SSE 23:00:52 63° SSE 23:05:33 10° ENE
Cosmos 1954 Rocket 3.9 22:56:26 10° NNW 23:01:38 81° ENE 23:02:58 50° SSE
SJ 16-02 4.1 23:00:23 10° NNE 23:02:23 13° NE 23:04:21 10° E
Meteor 2-21 4.4 22:58:14 10° N 23:04:24 88° E 23:06:32 44° S
CZ-2D R/B 4.4 23:02:37 10° ENE 23:04:34 12° E 23:06:31 10° ESE
Cosmos-2242 4.1 23:02:12 10° NNW 23:05:51 30° W 23:05:51 30° W
USA 307 3.0 23:02:25 10° NW 23:05:32 53° NNW 23:05:32 53° NNW
Cosmos 1420 Rocket 4.0 23:04:45 52° SW 23:06:03 79° WNW 23:11:23 10° NNE
Helios 1A Rocket 4.4 23:05:56 23° E 23:07:09 27° ENE 23:10:27 10° N
Cosmos 2173 Rocket 4.0 23:05:22 42° SSE 23:07:23 67° E 23:13:26 10° NNE
Lacrosse 5 4.0 23:05:21 10° NW 23:09:39 27° NNE 23:13:56 10° ENE
CENTAUR R/B 3.8 23:01:56 10° NW 23:09:57 58° NE 23:19:01 10° ESE
Cosmos 2056 Rocket 3.4 23:11:01 53° SSW 23:12:17 85° WNW 23:17:34 10° NNE
Cosmos 2082 Rocket 4.0 23:09:57 10° WNW 23:13:05 15° W 23:13:28 15° WSW
Cosmos 1656 Rocket 4.0 23:13:38 36° WSW 23:15:38 56° WNW 23:21:06 10° NNE
Lacrosse 4 Rocket 1.1 23:20:40 80° SE 23:20:45 81° ESE 23:24:51 10° NNE
Cosmos 2369 Rocket 2.3 23:19:37 42° SW 23:21:29 69° WNW 23:27:07 10° NNE
Cosmos 1602 3.5 23:24:54 78° NNW 23:24:54 78° NNW 23:28:21 10° N
Iridium 4 Rocket 4.1 23:24:37 10° NNW 23:30:12 54° W 23:31:55 40° SW
Cosmos 1190 Rocket 4.5 23:27:19 10° NW 23:32:11 41° WSW 23:32:46 40° WSW
Cosmos 676 Rocket 4.0 23:30:33 10° NNW 23:35:41 64° WSW 23:36:47 50° SSW
Cosmos 2263 4.3 23:33:41 41° SW 23:35:42 72° WNW 23:41:28 10° NNE
USA 229 DEB 4.0 23:32:18 25° WSW 23:35:57 57° NW 23:42:41 10° NE
USA 229 4.0 23:32:27 25° WSW 23:36:05 57° NW 23:42:49 10° NE
NOSS 2-1 (C) 4.1 23:42:09 30° E 23:42:09 30° E 23:44:20 10° ENE
CZ-4C R/B 3.5 23:35:46 10° NW 23:42:44 42° WSW 23:45:35 33° SSW
COSMOS 2455 2.8 23:37:20 10° NNW 23:43:26 87° WSW 23:46:54 27° SSE
Cosmos 1340 Rocket 2.5 23:40:33 10° NNW 23:44:26 87° W 23:44:46 74° S
Resurs 1-4 Rocket 3.5 23:40:51 10° NE 23:45:30 30° E 23:48:08 20° SE
Cosmos 2221 3.1 23:42:41 10° NNW 23:46:39 40° W 23:46:52 40° W
Cosmos 1741 Rocket 4.3 23:44:49 10° NNW 23:50:06 66° ENE 23:53:19 23° SE
ADEOS II 4.0 23:47:23 10° NE 23:51:23 22° E 23:54:39 13° SE
Okean 1 3.5 23:51:44 10° N 23:55:29 60° E 23:56:20 46° SE
